星链-35092 (STARLINK-35092)

基本信息
目录编号:
65342
目录名称:
STARLINK-35092
国际标识:
2025-189V
轨道中心:
EARTH
卫星名称:
星链-35092
卫星全名:
星链-35092 (STARLINK-35092)
卫星状态:
在轨 (已飞行111 天)
发射日期:
2025-08-27 UTC
国别 :
美国 (US)
星等 :
--
轨道信息
数据来源 国际轨道数据 AOE轨道数据
星历时间 2025-12-16T07:33:04+0800
5小时前
查看轨道信息
2025-12-11T16:00:00+0800
4天前
查看轨道信息
半长轴 6853.274km 6853.358km
偏心率 0.0001193 0.0001305
轨道倾角 53.157° 53.159°
近地点辐角 85.192° 79.398°
升交点赤经 235.351° 256.941°
平近点角 274.921° 222.281°
近地点 474.321km 474.328km
远地点 475.957km 476.118km
周期 94.104分钟 94.105分钟
每日圈数 15.302262 15.301982
详细信息
固有亮度:
5
最大亮度:
2.5
卫星平台:
Starlink V1.0
覆盖范围:
全球
运营商:
太空探索技术公司
运营商所在国:
美国
制造商(研发单位):
太空探索技术公司
制造商所在国:
美国
使用方式:
暂无
卫星简介
Starlink 计划是 SpaceX 推出的全球卫星互联网项目,通过发射低轨道卫星,为全球尤其是偏远地区提供高速、低延迟的互联网服务。自 2019 年起,Starlink 已部署数千颗卫星,旨在缩小全球数字鸿沟,推动互联网普及。该项目还为军事、航空等行业提供通信支持,带来广泛经济效益。
2D轨道图
3D轨道图
轨道高度分析图
轨道倾角分析图
轨道综合分析图
查看轨道综合分析图